Probability
35 39 42 35 39 42 48 48 45 45 32 45 39 39 39 45 29 32 39 16 3 0 0 0 0 0 0 0 3 3 3 3 3 3 6 10 13 13
42 42 48 26 29 19 35 39 42 42 39 19 39 29 45 29 23 29 32 13 3 3 0 0 0 0 0 0 0 0 0 0 3 3 3 0 0 6
32 29 29 35 32 19 26 29 29 26 29 26 29 39 42 35 35 39 32 32 26 3 0 0 0 0 0 0 0 0 0 0 0 0 0 0 0 0
32 29 26 26 32 32 29 19 23 32 32 32 32 32 39 39 42 45 29 19 26 3 0 0 0 0 0 0 0 0 0 0 0 0 0 0 0 0
29 29 26 29 39 35 32 26 26 26 35 35 35 32 35 32 42 35 29 42 26 6 0 0 0 0 0 0 0 0 0 0 0 0 0 0 0 0
32 32 26 26 29 26 26 32 39 32 35 35 29 29 39 29 35 35 35 39 29 19 6 3 0 0 0 0 0 0 0 0 0 0 0 0 0 0
26 26 26 16 19 19 13 19 23 26 19 26 23 23 23 29 26 29 29 32 32 23 26 19 10 10 3 0 0 0 0 0 0 0 0 0 0 0
26 26 26 26 10 3 0 3 10 19 23 23 23 23 26 19 26 26 29 29 29 26 26 23 16 16 16 13 0 0 0 0 0 0 0 0 0 0
23 19 19 6 6 16 10 0 0 0 0 13 19 23 19 26 26 29 26 26 29 23 19 23 23 16 16 6 0 0 0 0 0 0 0 0 0 0
19 16 16 16 16 13 16 16 16 16 6 6 13 19 16 23 26 26 29 23 26 29 19 26 32 26 10 10 0 0 0 0 0 0 0 0 0 0
16 16 16 16 10 3 10 13 10 10 3 0 0 3 3 0 10 10 19 16 16 19 26 29 26 29 26 19 3 0 0 0 0 0 0 0 0 0
19 16 6 6 3 0 10 10 6 13 10 10 0 0 0 3 0 13 16 13 13 10 19 23 26 29 19 13 13 3 3 0 0 0 0 0 0 0
13 10 10 0 0 0 0 3 3 0 3 10 10 3 10 10 13 19 19 13 10 13 13 19 19 23 16 6 10 10 6 6 3 3 0 0 0 0
10 10 6 3 0 0 0 0 0 0 0 3 3 3 3 6 6 13 19 13 16 16 13 10 10 23 23 16 13 10 6 10 10 3 3 0 0 0
6 3 0 0 0 0 0 0 0 0 3 3 3 6 3 6 6 10 13 13 13 13 10 16 16 16 16 13 10 10 3 6 3 6 3 3 3 0
3 3 0 0 0 0 0 0 0 3 3 3 6 3 6 6 3 0 6 10 10 10 6 6 6 6 6 13 10 10 6 3 3 0 0 0 0 0
3 3 3 3 3 3 3 3 3 3 3 3 3 3 3 3 3 3 3 3 3 6 3 3 3 6 6 6 6 6 3 3 0 0 0 0 0 0
3 3 3 3 3 3 3 3 3 3 3 3 3 6 3 3 3 3 0 3 3 0 3 3 0 3 0 3 0 3 3 3 0 3 0 0 0 0
3 3 3 3 3 3 3 3 3 3 3 3 3 3 0 3 3 3 3 3 0 0 3 3 3 3 3 3 0 0 0 0 0 3 0 0 0 0
3 3 3 3 3 3 3 3 3 3 0 0 3 3 0 3 3 3 3 3 3 0 3 3 3 6 3 3 0 0 0 3 3 0 0 0 0 0
3 3 3 3 3 3 3 3 0 0 0 3 3 3 3 3 3 3 3 0 0 0 3 3 3 0 3 0 0 0 0 0 0 3 3 3 0 0
3 3 3 0 0 0 0 0 0 0 3 3 3 3 3 3 3 3 3 3 3 3 0 3 0 0 0 0 0 0 0 0 0 0 0 0 3 0
0 0 0 0 0 0 0 0 0 0 0 0 0 0 3 3 3 3 3 3 3 0 3 3 0 0 0 0 0 0 0 0 0 0 0 0 0 0
Height
5871 5870 5868 5867 5866 5864 5863 5862 5861 5859 5858 5856 5855 5853 5852 5851 5849 5848 5847 5846 5845 5844 5843 5842 5840 5840 5839 5838 5838 5837 5836 5836 5835 5835 5836 5836 5836 5836
5866 5865 5864 5862 5861 5859 5858 5856 5855 5854 5852 5851 5849 5847 5846 5845 5844 5842 5841 5840 5839 5838 5837 5835 5834 5833 5832 5831 5830 5830 5829 5829 5828 5828 5828 5828 5829 5829
5861 5860 5858 5857 5855 5854 5852 5851 5849 5847 5846 5845 5843 5841 5840 5839 5837 5836 5835 5833 5832 5832 5830 5829 5828 5826 5825 5824 5823 5822 5821 5821 5821 5821 5821 5821 5821 5822
5855 5854 5852 5851 5849 5848 5846 5844 5843 5841 5840 5838 5837 5835 5834 5832 5831 5829 5828 5826 5825 5824 5823 5822 5820 5819 5817 5816 5815 5814 5813 5813 5813 5813 5813 5813 5813 5814
5849 5847 5845 5844 5842 5841 5839 5838 5836 5834 5833 5831 5830 5828 5827 5826 5824 5823 5821 5820 5818 5817 5815 5814 5813 5811 5810 5808 5807 5806 5805 5805 5805 5805 5804 5805 5805 5806
5842 5840 5838 5837 5835 5833 5832 5830 5829 5827 5826 5824 5823 5821 5820 5818 5817 5816 5814 5813 5811 5810 5808 5806 5805 5804 5802 5801 5799 5798 5797 5797 5797 5797 5797 5797 5797 5798
5835 5833 5831 5829 5827 5826 5824 5822 5821 5819 5818 5816 5815 5814 5812 5811 5809 5808 5807 5805 5804 5802 5800 5799 5797 5796 5794 5793 5791 5790 5790 5789 5789 5789 5789 5789 5790 5790
5827 5825 5823 5821 5819 5817 5816 5814 5813 5811 5810 5808 5807 5805 5804 5803 5801 5800 5799 5798 5796 5795 5793 5791 5789 5788 5786 5785 5784 5782 5782 5781 5781 5781 5781 5781 5781 5782
5819 5817 5815 5813 5811 5809 5807 5806 5804 5802 5801 5800 5799 5797 5796 5795 5793 5792 5790 5789 5788 5786 5785 5783 5781 5780 5778 5777 5776 5775 5774 5773 5773 5772 5773 5773 5773 5773
5811 5808 5806 5804 5802 5800 5798 5797 5795 5793 5792 5791 5790 5788 5787 5786 5784 5783 5782 5780 5779 5777 5776 5775 5773 5771 5770 5768 5767 5766 5766 5765 5764 5764 5764 5764 5764 5764
5801 5799 5797 5795 5793 5791 5789 5787 5785 5783 5782 5781 5780 5778 5777 5776 5775 5774 5772 5771 5770 5769 5767 5766 5764 5763 5761 5760 5759 5758 5757 5757 5756 5755 5755 5755 5755 5756
5792 5790 5787 5785 5783 5781 5779 5777 5775 5773 5772 5770 5769 5769 5768 5767 5765 5764 5763 5762 5760 5759 5758 5756 5755 5754 5753 5751 5750 5749 5749 5748 5747 5747 5746 5747 5747 5747
5782 5780 5777 5775 5773 5771 5769 5767 5765 5763 5762 5760 5759 5758 5757 5756 5755 5754 5753 5752 5751 5750 5748 5747 5746 5745 5743 5743 5742 5741 5740 5739 5738 5738 5738 5738 5738 5739
5772 5770 5767 5765 5763 5761 5759 5757 5755 5753 5751 5750 5749 5748 5747 5746 5745 5744 5743 5742 5741 5740 5738 5737 5736 5735 5734 5733 5733 5732 5731 5730 5729 5729 5729 5729 5729 5729
5762 5760 5758 5755 5753 5751 5749 5747 5745 5743 5741 5740 5739 5738 5737 5736 5735 5734 5733 5732 5731 5730 5729 5727 5727 5726 5725 5724 5723 5723 5722 5722 5721 5720 5720 5719 5720 5720
5752 5750 5747 5745 5743 5741 5739 5737 5735 5734 5732 5731 5729 5728 5727 5726 5725 5724 5723 5722 5721 5720 5719 5718 5717 5716 5715 5715 5714 5713 5713 5712 5712 5711 5711 5710 5710 5710
5742 5740 5737 5735 5733 5731 5729 5727 5726 5724 5722 5721 5719 5718 5717 5716 5715 5714 5712 5711 5710 5710 5709 5708 5707 5706 5705 5705 5704 5704 5703 5702 5702 5701 5701 5701 5701 5701
5732 5730 5727 5725 5723 5721 5719 5717 5716 5714 5712 5711 5709 5708 5707 5705 5704 5703 5702 5701 5700 5699 5698 5697 5697 5696 5695 5695 5695 5694 5693 5692 5692 5691 5691 5691 5691 5691
5722 5720 5717 5715 5713 5711 5709 5707 5706 5704 5702 5701 5699 5697 5696 5695 5694 5693 5691 5690 5689 5689 5688 5687 5686 5685 5685 5685 5684 5683 5683 5682 5681 5681 5681 5681 5681 5681
5712 5709 5707 5705 5703 5701 5699 5697 5696 5694 5692 5690 5689 5687 5686 5684 5683 5682 5681 5680 5679 5678 5677 5676 5675 5675 5674 5674 5674 5673 5672 5671 5671 5671 5671 5670 5671 5671
5701 5699 5697 5695 5693 5691 5689 5687 5685 5683 5682 5680 5678 5677 5675 5674 5673 5672 5671 5670 5669 5668 5667 5666 5665 5664 5663 5663 5663 5663 5662 5661 5661 5660 5660 5660 5661 5661
5691 5689 5687 5685 5682 5680 5678 5676 5675 5673 5671 5669 5668 5667 5665 5664 5663 5661 5660 5659 5658 5657 5656 5656 5655 5654 5653 5652 5652 5652 5652 5651 5651 5650 5650 5651 5651 5651
5681 5679 5677 5674 5672 5670 5668 5666 5664 5662 5661 5659 5658 5656 5655 5654 5653 5651 5650 5649 5648 5647 5646 5645 5644 5644 5643 5643 5642 5642 5641 5641 5641 5641 5642 5642 5642 5642
Wind_Speed
17 18 18 18 19 19 19 19 19 20 20 21 22 22 22 23 23 23 23 23 24 24 24 24 24 25 26 26 26 26 25 26 26 26 25 25 25 24
19 19 20 20 20 20 20 20 20 21 21 22 23 23 23 23 23 24 24 24 24 24 24 24 24 25 26 27 27 27 28 28 28 27 27 26 26 26
20 20 21 21 21 21 22 22 22 22 22 23 23 24 24 24 25 25 25 25 25 25 25 25 25 26 27 27 27 28 28 28 28 28 27 27 28 28
22 23 23 23 23 24 24 24 24 24 24 23 24 24 24 25 25 25 25 26 26 26 27 27 27 27 27 27 27 27 28 28 28 28 28 28 28 28
24 25 25 24 25 25 25 26 26 25 25 25 25 25 25 26 26 26 26 26 27 27 27 28 28 28 28 27 27 27 27 28 27 27 28 28 27 28
25 26 27 27 27 27 27 27 27 27 27 27 27 27 27 27 27 27 27 27 28 28 28 28 28 29 28 28 28 27 28 28 28 28 28 28 28 28
27 27 27 28 29 29 29 28 28 28 28 29 29 28 28 29 29 29 29 29 29 29 29 29 28 28 29 29 29 28 28 28 28 28 28 28 28 28
29 29 30 29 29 29 30 30 30 29 29 29 29 29 29 29 29 30 30 30 30 29 29 28 29 29 29 29 28 28 28 28 28 28 29 29 29 29
31 31 31 30 29 29 30 31 31 31 31 31 30 30 30 30 30 30 31 31 31 31 30 30 29 29 30 29 29 29 28 27 28 28 29 29 30 30
32 32 32 32 30 30 31 32 32 32 32 32 32 31 31 31 31 32 32 32 32 31 31 31 30 30 30 30 29 29 28 28 29 28 28 29 29 29
34 34 34 33 32 32 32 32 32 33 34 34 33 33 32 32 32 32 32 33 32 32 32 32 31 31 31 30 29 29 29 29 30 29 29 29 29 29
34 35 34 33 33 33 33 33 33 33 33 34 33 33 33 33 33 33 33 33 32 32 32 32 31 31 31 31 30 29 30 30 30 30 30 29 30 29
34 34 33 33 33 33 33 33 33 33 33 34 34 34 34 33 33 33 32 32 33 33 33 33 32 32 32 32 31 31 30 30 29 30 30 30 30 29
34 33 32 32 32 32 32 32 33 33 33 33 33 33 33 33 33 33 33 33 33 33 33 33 33 33 32 32 32 31 31 31 30 30 31 31 30 30
34 33 32 31 31 31 31 31 31 31 31 31 32 32 33 33 33 33 33 33 33 33 33 33 32 32 32 32 32 31 31 31 31 30 31 32 32 30
33 33 32 32 32 32 32 31 31 31 31 32 32 32 32 33 32 32 32 33 33 33 33 33 32 32 31 32 32 32 32 31 31 31 31 31 31 30
34 34 34 33 33 33 33 32 32 32 32 32 32 32 32 32 32 32 32 33 32 32 33 33 33 33 32 32 32 32 33 32 32 31 31 31 31 30
34 33 34 34 34 33 33 33 32 32 32 32 32 31 31 31 32 32 32 33 32 32 32 33 33 33 32 32 32 32 33 33 32 32 32 32 32 31
34 34 34 34 33 33 33 32 32 32 32 32 32 31 32 32 32 32 32 32 32 33 33 33 32 32 32 32 32 33 33 33 33 32 32 32 31 30
33 33 33 32 32 33 33 32 32 32 32 32 32 32 32 32 32 31 31 32 32 32 32 31 32 32 32 32 32 32 32 32 31 31 30 30 30 30
32 32 32 32 32 32 32 32 32 32 31 31 31 31 31 31 31 31 31 31 31 31 31 30 30 31 31 32 32 31 31 31 30 29 28 28 28 28
31 31 31 31 31 31 31 32 32 31 31 31 31 31 31 31 31 31 30 30 30 30 30 30 30 30 30 29 29 29 28 28 29 28 27 26 26 25
30 31 31 31 31 31 31 32 31 31 30 30 30 30 30 30 30 30 29 30 30 30 30 30 29 28 28 27 27 27 26 26 26 26 25 25 25 24
Wind_Direction
295 293 292 293 293 293 292 291 291 291 290 290 290 288 286 283 282 283 283 283 284 283 284 282 281 279 278 278 277 274 272 272 271 270 270 270 270 271
293 292 292 292 291 291 291 291 290 291 291 289 288 288 287 285 282 282 284 283 283 284 286 286 285 282 280 279 278 275 273 272 270 269 268 269 270 271
291 291 291 291 290 290 290 289 289 290 290 288 288 288 286 284 284 283 283 283 284 284 285 286 285 284 282 281 280 276 274 272 270 268 267 267 268 269
289 289 291 291 289 289 289 288 289 289 288 286 286 288 287 286 285 284 283 283 284 284 283 284 285 285 284 281 280 278 275 272 270 268 267 266 266 267
289 290 291 290 289 289 288 288 288 287 286 284 284 285 285 286 285 284 283 284 285 285 285 284 284 284 282 281 280 280 277 272 269 268 267 267 267 266
293 291 290 289 289 289 287 286 286 285 285 284 284 283 283 283 283 284 283 283 284 285 286 285 284 283 282 281 280 279 275 272 269 267 266 266 264 266
292 292 291 291 289 287 285 284 284 284 284 284 284 283 282 281 281 282 282 283 284 285 286 285 284 282 281 280 281 280 276 272 270 269 268 268 267 267
290 291 291 291 290 289 287 285 284 284 284 283 283 283 282 281 281 281 282 283 284 285 286 285 285 283 282 281 281 280 277 273 270 269 269 269 268 267
290 290 290 290 289 288 287 287 284 282 282 283 282 282 282 281 281 281 282 282 282 283 284 284 284 284 283 283 282 282 279 275 273 271 269 268 268 267
287 288 289 290 288 287 286 286 285 283 281 281 281 281 281 280 280 281 281 282 283 283 283 283 283 283 283 282 282 281 279 275 273 272 271 269 267 266
287 288 289 287 286 287 286 285 285 282 279 278 279 279 280 280 280 281 281 281 282 282 282 282 282 281 281 281 281 281 279 278 275 273 272 270 268 267
288 289 287 286 286 286 285 284 284 282 280 279 278 278 279 280 280 280 281 280 281 281 281 280 280 280 279 279 279 279 279 278 276 274 271 269 268 267
288 288 288 286 285 284 284 283 282 281 279 279 278 279 279 279 279 280 281 281 280 279 280 280 279 279 279 278 277 278 278 278 278 274 270 269 268 267
289 288 289 288 287 286 285 284 282 281 281 279 279 278 278 277 277 278 279 281 280 279 279 279 279 279 279 278 277 276 277 277 277 275 270 269 268 267
288 289 289 289 288 288 288 286 285 284 283 282 281 280 279 278 278 278 278 279 279 279 279 279 278 278 278 278 277 277 276 275 274 273 273 271 269 266
288 289 289 288 288 288 288 288 286 285 285 283 283 281 279 279 278 277 278 278 279 279 278 277 276 276 276 276 277 277 277 276 274 272 273 272 269 267
288 289 288 287 287 288 287 287 286 285 285 285 283 281 279 277 277 277 278 278 279 279 278 277 276 275 275 276 276 276 277 276 275 273 270 271 270 269
287 289 289 287 287 287 288 287 286 286 285 284 283 281 279 279 279 278 278 279 280 279 278 277 276 275 275 275 276 276 276 275 275 273 271 271 271 269
287 288 288 286 286 287 287 287 287 286 285 283 282 281 281 281 281 280 280 279 279 279 279 278 276 276 276 276 275 276 276 274 274 273 272 271 269 270
288 288 287 287 288 288 287 287 287 286 284 283 282 281 281 281 280 281 281 281 281 280 279 278 277 277 277 277 275 275 275 274 274 272 271 269 268 267
287 289 289 288 288 288 287 287 287 286 284 283 282 281 281 281 281 280 280 281 281 281 280 278 278 278 278 276 274 273 273 272 273 272 271 270 269 267
288 289 289 290 289 287 287 287 287 286 284 282 282 281 281 281 281 281 281 281 281 281 280 278 278 277 276 275 274 272 271 271 271 269 270 271 270 267
291 290 291 290 288 287 287 287 286 285 284 283 283 282 281 282 282 282 281 280 280 280 280 279 278 276 275 274 273 272 271 270 269 268 269 269 269 267